This demonstration page uses our WeatherBlox Daily Observations layout. Learn more.

Left ArrowRight Arrow

39.29038, -76.61219

Hourly Observations for September 5, 2020

Temp ( °F °C ) Dew Point ( °F °C ) Humidity (%) Winds ( mph kmh ) Pressure ( in mb ) Visibility ( mi km ) Precip ( " mm )
12:54 am 00:54 Mostly Clear 70 21.1 55 12.8 59 59 NW 5 7 30.07 1018 10 16 0.00 0.00
1:54 am 01:54 Partly Cloudy 68 20 54 12.2 61 61 Calm 30.09 1019 10 16 0.00 0.00
2:54 am 02:54 Partly Cloudy 67 19.4 55 12.8 66 66 Calm 30.12 1020 10 16 0.00 0.00
3:54 am 03:54 Mostly Clear 63 17.2 55 12.8 76 76 NW 6 9 30.14 1021 10 16 0.00 0.00
4:54 am 04:54 Mostly Clear 61 16.1 56 13.3 84 84 Calm 30.16 1021 10 16 0.00 0.00
5:54 am 05:54 Mostly Clear 59 15 55 12.8 87 87 WNW 5 7 30.17 1022 10 16 0.00 0.00
6:54 am 06:54 Mostly Sunny 60 15.6 54 12.2 80 80 NNW 5 7 30.19 1023 10 16 0.00 0.00
7:29 am 07:29 Mostly Sunny 62 16.7 54 12.2 75 75 WNW 3 6 30.21 1023 10 16 0.00 0.00
7:54 am 07:54 Mostly Sunny 64 17.8 56 13.3 75 75 WNW 3 6 30.21 1023 10 16 0.00 0.00
8:54 am 08:54 Partly Cloudy 71 21.7 53 11.7 53 53 N 7 11 30.23 1024 10 16 0.00 0.00
9:54 am 09:54 Partly Cloudy 74 23.3 53 11.7 48 48 N 9 15 30.24 1024 10 16 0.00 0.00
10:54 am 10:54 Mostly Cloudy 76 24.4 49 9.4 39 39 N 6 9 30.25 1024 10 16 0.00 0.00
11:54 am 11:54 Mostly Cloudy 77 25 50 10 39 39 E 6 9 30.24 1024 10 16 0.00 0.00
12:54 pm 12:54 Mostly Cloudy 78 25.6 49 9.4 36 36 VRB 5 7 30.22 1023 10 16 0.00 0.00
1:54 pm 13:54 Mostly Cloudy 79 26.1 50 10 36 36 S 3 6 30.21 1023 10 16 0.00 0.00
2:54 pm 14:54 Partly Cloudy 81 27.2 53 11.7 38 38 NNW 5 7 30.20 1023 10 16 0.00 0.00
3:54 pm 15:54 Mostly Sunny 80 26.7 52 11.1 38 38 W 9 15 30.19 1022 10 16 0.00 0.00
4:54 pm 16:54 Mostly Sunny 81 27.2 51 10.6 35 35 W 5 7 30.17 1022 10 16 0.00 0.00
5:54 pm 17:54 Mostly Sunny 79 26.1 50 10 36 36 NW 6 9 30.18 1022 10 16 0.00 0.00
6:54 pm 18:54 Mostly Sunny 76 24.4 54 12.2 47 47 W 5 7 30.19 1022 10 16 0.00 0.00
7:54 pm 19:54 Mostly Clear 73 22.8 55 12.8 53 53 SSE 7 11 30.19 1023 10 16 0.00 0.00
8:54 pm 20:54 Clear 70 21.1 55 12.8 59 59 SSW 3 6 30.20 1023 10 16 0.00 0.00
9:54 pm 21:54 Clear 69 20.6 54 12.2 59 59 SW 3 6 30.21 1023 10 16 0.00 0.00
10:54 pm 22:54 Clear 65 18.3 56 13.3 73 73 W 3 6 30.21 1023 10 16 0.00 0.00
11:54 pm 23:54 Clear 62 16.7 57 13.9 84 84 WSW 3 6 30.20 1023 10 16 0.00 0.00

Powered by AerisWeather